Flag Weather past 2 weeks in Opole, Poland

Now
37 °F

Passing clouds.


Feels Like: 32 °F
Forecast: 31 / 39 °F
Wind: 7 mph from Southeast

Location: Wroclaw Ii

Current Time: Nov 26, 2014 at 5:23:22 PM

Latest Report: Nov 26, 2014 at 5:00 PM


Visibility: N/A

Pressure: 30.21 "Hg

Humidity: 81%

Dew point: 32 °F

Location of OpoleLocation

Historic Weather in Opole — Graph

°F

Opole temperature yesterday

Maximum temperature yesterday: 45 °F (at 12:00 AM)
Minimum temperature yesterday: 34 °F (at 8:30 AM)
Average temperature yesterday: 42 °F

Past Weeks' High & Low Weather Summary

 TemperatureHumidityPressure
High64 °F (Nov 12, 12:30 PM)100% (Nov 17, 10:30 AM)30.33 "Hg (Nov 17, 10:30 AM)
Low34 °F (Nov 25, 8:30 AM)60% (Nov 12, 12:30 PM)29.65 "Hg (Nov 16, 6:30 AM)
Average45 °F88%30.06 "Hg
* Reported Nov 11 4:00 PM — Nov 26 4:00 PM, Opole, Weather by CustomWeather, © 2014

Note: Actual official high and low records may vary slightly from our data, if they occured in-between our weather recording intervals... More about our weather records

Advertising

Opole weather history for previous 24 hours

 ConditionsComfort  
Time TempWeatherWind HumidityBarometerVisibility
4:00 PM
Nov 26
39 °FClear.6 mph81%30.21 "Hg6 mi
3:30 PM43 °FClear.8 mph76%30.21 "Hg6 mi
3:00 PM45 °FClear.9 mph66%30.21 "Hg5 mi
2:30 PM43 °FClear.9 mph81%30.21 "Hg5 mi
2:00 PM45 °FClear.8 mph76%30.21 "Hg5 mi
1:30 PM43 °FPassing clouds.7 mph81%30.24 "Hg5 mi
1:00 PM43 °FPartly sunny.7 mph81%30.24 "Hg4 mi
12:30 PM43 °FFog.7 mph87%30.24 "Hg3 mi
12:00 PM43 °FFog.8 mph87%30.24 "Hg3 mi
11:30 AM43 °FFog.7 mph87%30.27 "Hg3 mi
11:00 AM43 °FFog.6 mph93%30.27 "Hg2 mi
10:30 AM43 °FFog.7 mph93%30.27 "Hg2 mi
10:00 AM43 °FFog.7 mph93%30.27 "Hg1 mi
9:30 AM41 °FFog.8 mph93%30.27 "Hg1 mi
9:00 AM43 °FFog.6 mph93%30.27 "Hg1 mi
8:30 AM41 °FFog.3 mph93%30.27 "Hg1 mi
8:00 AM41 °FFog.5 mph93%30.27 "Hg1 mi
7:30 AM41 °FFog.5 mph100%30.27 "Hg1 mi
7:00 AM41 °FFog.3 mph100%30.27 "Hg1 mi
6:30 AM41 °FFog.3 mph100%30.27 "Hg1 mi
6:00 AM41 °FFog.2 mph100%30.27 "Hg1 mi
5:30 AM41 °FFog.2 mph100%30.27 "Hg1 mi
5:00 AM41 °FLight rain. Fog.1 mph100%30.27 "Hg2 mi
4:30 AM41 °FFog.1 mph100%30.27 "Hg2 mi
4:00 AM41 °FLight rain. Fog.2 mph93%30.30 "Hg2 mi
3:30 AM41 °FLight rain. Fog.2 mph100%30.30 "Hg3 mi
3:00 AM41 °FFog.1 mph100%30.30 "Hg3 mi
2:30 AM43 °FPartly cloudy.1 mph93%30.30 "Hg4 mi
2:00 AM43 °FPassing clouds.1 mph93%30.30 "Hg4 mi
1:30 AM43 °FPassing clouds.2 mph93%30.30 "Hg4 mi
1:00 AM41 °FFog.2 mph100%30.30 "Hg3 mi
12:30 AM41 °FFog.1 mph93%30.33 "Hg3 mi
12:00 AM41 °FFog.2 mph93%30.33 "Hg3 mi
11:30 PM
Nov 25
41 °FPartly cloudy.2 mph93%30.33 "Hg4 mi
11:00 PM41 °FPassing clouds.2 mph93%30.33 "Hg4 mi
10:30 PM43 °FPassing clouds.3 mph87%30.33 "Hg5 mi
10:00 PM43 °FPassing clouds.2 mph87%30.33 "Hg6 mi
9:30 PM43 °FPassing clouds.2 mph87%30.33 "Hg5 mi
9:00 PM43 °FPassing clouds.3 mph87%30.33 "Hg4 mi
8:30 PM43 °FPassing clouds.3 mph87%30.33 "Hg5 mi
8:00 PM43 °FPassing clouds.3 mph93%30.33 "Hg5 mi
7:30 PM43 °FPassing clouds.2 mph93%30.33 "Hg5 mi
7:00 PM43 °FPassing clouds.3 mph93%30.33 "Hg5 mi
6:30 PM43 °FMostly cloudy.3 mph93%30.33 "Hg5 mi
6:00 PM43 °FPassing clouds.3 mph93%30.33 "HgN/A
5:30 PM43 °FPartly cloudy.5 mph93%30.33 "HgN/A
5:00 PM45 °FPassing clouds.6 mph87%30.33 "HgN/A
Weather by CustomWeather, © 2014

See weather overviewHow to use our weather pages